カタログに戻る

STARLINK-36580

運用中通信SSO
NORAD 67546·PAYLOAD·🇺🇸 United States

打ち上げ Jan 22, 2026 から Vandenberg Space Force Base

Loading…

次のパス (今後24時間)

TLE

最新Source: CelesTrak SupGP

元期: Sep 15, 2026, 03:21 UTC

1 67546C 26014Q   26258.14006944  .00062978  00000+0  19544-2 0  2586
2 67546  97.2843 143.5413 0001897  95.3727 285.6384 15.33416069    17

AllMySatでSTARLINK-36580をリアルタイム追跡

Download on the App Store